AirNav   Air Wisconsin pilot careers
 
 1005 users online  

58VA Walnut Hill Airport
Calverton, Virginia, USA

GOING TO CALVERTON?


FAA INFORMATION EFFECTIVE 16 AUGUST 2018

Location

FAA Identifier: 58VA
Lat/Long: 38-35-42.4380N / 077-38-45.9630W
38-35.707300N / 077-38.766050W
38.5951217 / -77.6461008
(estimated)
Elevation: 285 ft. / 87 m (estimated)
Variation: 08W (1980)
From city: 3 miles SE of CALVERTON, VA
Time zone: UTC -4 (UTC -5 during Standard Time)
Zip code: 20119

Airport Operations

Airport use: Private use. Permission required prior to landing
Activation date: 11/1986
Control tower: no
ARTCC: WASHINGTON CENTER
FSS: LEESBURG FLIGHT SERVICE STATION
Attendance: IREG
Wind indicator: yes
Segmented circle: no

Airport Communications

WX AWOS-3 at HWY (3 nm W): 120.350 (540-788-4078)
WX AWOS-3PT at HEF (10 nm NE): PHONE 703-361-6160
WX AWOS-3 at CJR (11 nm SW): 119.325 (540-727-0523)
WX AWOS-3 at RMN (15 nm SE): 126.325 (540-657-8283)

Nearby radio navigation aids

VOR radial/distance  VOR name  Freq  Var
CSNr111/10.7CASANOVA VORTAC116.3006W
BRVr327/20.8BROOKE VORTAC114.5009W
AMLr210/22.0ARMEL VOR/DME113.5008W
LDNr127/30.5LINDEN VORTAC114.3006W
DCAr250/32.6WASHINGTON VOR/DME111.0009W
ADWr261/38.7ANDREWS VORTAC113.1010W

 
NDB name  Hdg/Dist  Freq  Var  ID
NAILR065/14.835110WMSQ -- ... --.-
SHANNON345/21.823710WEZF . --.. ..-.
DAVEE270/25.422309WDAA -.. .- .-
OXONN262/30.733211WDCA -.. -.-. .-
GEORGETOWN240/31.632309WGTN --. - -.
CAVERNS108/39.224509WLUA .-.. ..- .-

Airport Services

Runway Information

Runway 18/36

Dimensions: 2490 x 50 ft. / 759 x 15 m
Surface: turf
RUNWAY 18  RUNWAY 36
Traffic pattern: leftleft
Displaced threshold: 500 ft.200 ft.
Obstructions: 40 ft. trees, 70 ft. from runway70 ft. trees, 600 ft. from runway

Airport Ownership and Management from official FAA records

Ownership: Privately-owned
Owner: WALNUT HILL FARM LLC
10593 SHENANDOAH PATH
CATLETT, VA 20119
Phone 540-788-4452
Manager: JANICE L. WILEY
10593 SHENANDOAH PATH
CATLETT, VA 22019
Phone 540-788-4452

Additional Remarks

A40 CONES OUTLINE LANDING AREA.

Instrument Procedures

There are no published instrument procedures at 58VA.

Some nearby airports with instrument procedures:

KHWY - Warrenton-Fauquier Airport (3 nm W)
KHEF - Manassas Regional Airport/Harry P. Davis Field (10 nm NE)
KCJR - Culpeper Regional Airport (11 nm SW)
KRMN - Stafford Regional Airport (15 nm SE)
KNYG - Quantico Marine Corps Airfield / Turner Field (17 nm E)
 
Loc | Ops | Rwys | IFR | FBO | Links
Com | Nav | Svcs | Stats | Notes


 
Area around 58VA (Walnut Hill Airport)
 
Road maps at: MapQuest Bing Google
 
Aerial photo
WARNING: Photo may not be current or correct
Aerial photo of 58VA (Walnut Hill Airport)
Photo taken 26-Jun-2011
looking north.

Do you have a better or more recent aerial photo of Walnut Hill Airport that you would like to share? If so, please send us your photo.

 
Sectional chart

 
Airport distance calculator
Flying to Walnut Hill Airport? Find the distance to fly.

From to 58VA

Sunrise and sunset
Times for 18-Aug-2018
 Local
(UTC-4)
 Zulu
(UTC)
Morning civil twilight06:0010:00
Sunrise06:2810:28
Sunset20:0100:01
Evening civil twilight20:2900:29

Current date and time
Zulu (UTC)  18-Aug-2018 18:10:53
Local (UTC-4)  18-Aug-2018 14:10:53
 
METAR
KHWY 
3nm W 
181755Z AUTO 22007KT 10SM SCT035 SCT047 BKN065 29/21 A2990 RMK AO2 T02930208 10307 20232
KHEF 
9nm NE 
181756Z 22005KT 10SM BKN036 29/22 A2990 RMK AO2 SLP132 6//// T02940222 10306 20228 57011 PNO $
KRMN 
15nm SE 
181755Z AUTO 23005KT 10SM CLR 30/23 A2994 RMK AO2 T03010225 10313 20231
KNYG 
18nm E 
181756Z 26009KT 10SM SCT040 SCT120 BKN220 32/21 A2989 RMK AO2 SLP123 T2 T03170206 10328 20250 58012
TAF
KNYG 
18nm E 
1815/1915 29005KT 9999 SKC QNH2984INS BECMG 1901/1903 22008KT 9000 BR FEW050 QNH2983INS T30/1818Z T20/1909Z LAST NO AMDS AFT 18/15Z NEXT 20/09Z
KIAD 
22nm NE 
181720Z 1818/1924 25007KT P6SM VCTS SCT045CB OVC200 FM190300 VRB03KT P6SM SCT025 OVC200
NOTAMs
Click for the latest NOTAMs
NOTAMs are issued by the DoD/FAA and will open in a separate window not controlled by AirNav.

 

 
 

Would you like to see your business listed on this page?

 If your business provides an interesting product or service to pilots, flight crews, aircraft, or users of the Walnut Hill Airport, you should consider listing it here.  To start the listing process, click on the button below
 
Add a business
 

Other Pages about Walnut Hill Airport

Update a link
 
Copyright © AirNav, LLC. All rights reserved. Privacy Policy  Contact